[[{"header":{"parameterUnit":"m.s-1","parameterCategory":1,"la1":30.2991,"la2":30.254,"lo1":-89.0895,"lo2":-89.0444,"dy":0.0017,"dx":0.0017,"nx":28,"ny":28,"refTime":"2025-03-17T21:00:00:Z","depth":0,"parameterNumber":2,"parameterNumberName":"U-component_of_WINDS"},"data":[0,0,0,0,0,0,0,0,0,0,0,0,0,0,0,0,0,0,0,0,0,0,0,0,0,0,0,0,0,0,0,0,0,0,0,0,0,0,0,0,0,0,0,0,0,0,0,0,0,0,0,0,0,0,0,0,0,0,-0.4578,-0.4578,0,-0.4585,-0.4585,-0.4585,-0.46,-0.4601,-0.4601,-0.4601,-0.4609,-0.4609,-0.4609,0,0,0,0,0,0,0,0,0,0,0,0,0,-0.4579,-0.4579,-0.4578,-0.4578,-0.4578,-0.4585,-0.4585,-0.4585,-0.46,-0.4601,-0.4601,-0.4601,-0.4609,-0.4609,-0.4609,0,0,0,0,0,0,0,0,0,0,0,0,0,-0.4582,-0.4579,-0.4578,-0.4586,-0.4587,-0.4585,-0.4585,-0.4585,-0.46,-0.4601,-0.4601,-0.4602,-0.4609,-0.4609,-0.4609,-0.4599,0,0,-0.4609,-0.4609,0,0,0,0,0,0,0,0,-0.4581,-0.4582,-0.4585,-0.4586,-0.4587,-0.4592,-0.4588,-0.459,-0.46,-0.4595,-0.4601,-0.4602,-0.4603,-0.4604,-0.4604,-0.4599,-0.46,-0.4609,-0.4609,-0.4609,-0.4608,0,0,0,0,0,0,0,-0.4581,-0.4581,-0.4581,-0.4585,-0.4586,-0.459,-0.4591,-0.4589,-0.4597,-0.4596,-0.4597,-0.4598,-0.4604,-0.4604,-0.4604,-0.46,-0.4609,-0.4609,-0.4608,-0.4608,-0.4588,-0.4588,0,0,0,0,0,0,-0.458,-0.4581,-0.458,-0.4581,-0.4585,-0.459,-0.4591,-0.459,-0.4597,-0.4598,-0.4597,-0.4598,-0.4604,-0.4604,-0.4605,-0.4594,-0.4609,-0.4608,-0.4608,-0.4589,-0.4588,-0.4588,0,0,0,0,0,0,-0.458,-0.4579,-0.458,-0.4581,-0.4582,-0.459,-0.4588,-0.459,-0.459,-0.4598,-0.4599,-0.4596,-0.4604,-0.4605,-0.46,-0.4594,-0.4608,-0.4608,-0.4589,-0.4589,-0.4588,-0.4572,0,0,0,0,0,0,-0.458,-0.4579,-0.4575,-0.4581,-0.4582,-0.4575,-0.4588,-0.459,-0.459,-0.4591,-0.4597,-0.4598,-0.4605,-0.4601,-0.46,-0.4594,-0.4608,-0.459,-0.4589,-0.4588,-0.4573,-0.4571,-0.4569,0,0,0,0,0,-0.458,-0.457,-0.4575,-0.4575,-0.4576,-0.4575,-0.4575,-0.4583,-0.4589,-0.4585,-0.459,-0.4598,-0.4595,-0.46,-0.46,-0.4594,-0.459,-0.4589,-0.4588,-0.4574,-0.4571,-0.4569,0,0,0,0,0,0,-0.4563,-0.4571,-0.4576,-0.4568,-0.4571,-0.4577,-0.4573,-0.4579,-0.458,-0.4582,-0.4591,-0.4592,-0.4587,-0.459,-0.4595,-0.4585,-0.4594,-0.4593,-0.4583,-0.4581,-0.4579,-0.4578,-0.4608,0,0,0,0,0,-0.4559,-0.4557,-0.4564,-0.4556,-0.4557,-0.4565,-0.4564,-0.457,-0.4573,-0.4574,-0.4579,-0.4582,-0.4582,-0.4581,-0.4582,-0.4574,-0.4576,-0.457,-0.4568,-0.4566,-0.4565,-0.4562,-0.456,-0.4585,-0.4585,-0.4585,0,0,-0.455,-0.4554,-0.4552,-0.4553,-0.4556,-0.4554,-0.4565,-0.4563,-0.4562,-0.4574,-0.457,-0.4574,-0.4578,-0.4572,-0.457,-0.4574,-0.4558,-0.4565,-0.4563,-0.4563,-0.4561,-0.4558,-0.4556,-0.4584,-0.4584,-0.4584,0,0,-0.4532,-0.4534,-0.4529,-0.4531,-0.4535,-0.454,-0.4539,-0.4545,-0.4548,-0.4544,-0.4554,-0.4553,-0.4552,-0.4555,-0.4556,-0.454,-0.4548,-0.454,-0.4529,-0.4526,-0.4524,-0.4522,-0.4518,-0.4516,-0.4539,-0.4539,-0.4539,0,-0.452,-0.4517,-0.4525,-0.4522,-0.4523,-0.4534,-0.4529,-0.4531,-0.4534,-0.4535,-0.454,-0.454,-0.4544,-0.4539,-0.4535,-0.4536,-0.4535,-0.4539,-0.4524,-0.4522,-0.4521,-0.4516,-0.4514,-0.4538,-0.4538,-0.4538,-0.4538,0,-0.4502,-0.45,-0.4495,-0.4499,-0.4499,-0.4495,-0.4503,-0.4502,-0.4508,-0.4513,-0.451,-0.4515,-0.4516,-0.4516,-0.4521,-0.4512,-0.4515,-0.4522,-0.4531,-0.4517,-0.4513,-0.4511,-0.4537,-0.4537,-0.4537,-0.4538,0,0,-0.4474,-0.4483,-0.4481,-0.4483,-0.4488,-0.4487,-0.4484,-0.4486,-0.4485,-0.4488,-0.4486,-0.4485,-0.4492,-0.4493,-0.4499,-0.4497,-0.4485,-0.4504,-0.4504,-0.4501,-0.4476,-0.4471,-0.4469,-0.449,-0.449,-0.4489,-0.4476,0,-0.4458,-0.4452,-0.446,-0.4453,-0.4452,-0.4463,-0.446,-0.4464,-0.4469,-0.4469,-0.4474,-0.4474,-0.4482,-0.4483,-0.4481,-0.4487,-0.448,-0.4488,-0.4489,-0.4489,-0.4488,-0.4467,-0.4461,-0.4449,-0.4474,-0.4474,-0.4474,0,-0.4438,-0.444,-0.4433,-0.4439,-0.4439,-0.4436,-0.4439,-0.4439,-0.4443,-0.4447,-0.4449,-0.4457,-0.4455,-0.4464,-0.4462,-0.4467,-0.4468,-0.4471,-0.447,-0.4471,-0.4481,-0.4467,-0.4445,-0.4443,-0.4471,-0.4472,-0.4472,0,-0.4419,-0.4419,-0.4415,-0.4417,-0.4424,-0.4422,-0.4426,-0.4431,-0.4431,-0.4434,-0.4435,-0.4437,-0.4438,-0.444,-0.4448,-0.4454,-0.4446,-0.4455,-0.4449,-0.4449,-0.4447,-0.4447,-0.4424,-0.4447,-0.4447,-0.4447,-0.4447,0,-0.44,-0.4396,-0.4407,-0.4405,-0.44,-0.441,-0.4405,-0.4409,-0.4414,-0.4413,-0.4423,-0.4422,-0.4433,-0.4433,-0.4439,-0.4437,-0.4438,-0.4441,-0.4443,-0.444,-0.444,-0.4441,-0.4443,-0.4447,-0.4447,-0.4447,-0.4447,0,-0.4378,-0.4385,-0.4382,-0.439,-0.4392,-0.4388,-0.4395,-0.4393,-0.4399,-0.4398,-0.4398,-0.4407,-0.4408,-0.4417,-0.442,-0.4424,-0.442,-0.4423,-0.4418,-0.4419,-0.4413,-0.4414,-0.4391,-0.4389,-0.4412,-0.4412,-0.4412,0,-0.4366,-0.4363,-0.437,-0.437,-0.4373,-0.4373,-0.4374,-0.4383,-0.4384,-0.4389,-0.4387,-0.4389,-0.4391,-0.4393,-0.44,-0.4402,-0.4406,-0.4398,-0.4407,-0.4405,-0.4407,-0.4407,-0.4407,-0.4396,-0.4396,-0.4396,-0.4395,0,-0.4343,-0.4347,-0.4348,-0.4351,-0.4352,-0.4354,-0.4357,-0.4357,-0.4367,-0.4368,-0.4369,-0.437,-0.4374,-0.4376,-0.438,-0.4384,-0.4392,-0.4393,-0.4392,-0.4389,-0.4387,-0.4388,-0.4413,-0.4393,-0.4393,-0.4394,-0.4394,-0.4394,-0.4326,-0.4324,-0.4329,-0.433,-0.4334,-0.4336,-0.4336,-0.4341,-0.4342,-0.4346,-0.4351,-0.4352,-0.4358,-0.4364,-0.4367,-0.4368,-0.4373,-0.4371,-0.437,-0.437,-0.4369,-0.4386,-0.4369,-0.4369,-0.4369,-0.4369,-0.4369,0,-0.4305,-0.4309,-0.431,-0.4314,-0.4315,-0.4322,-0.4326,-0.4326,-0.4327,-0.4331,-0.4333,-0.4335,-0.4337,-0.4345,-0.4348,-0.4347,-0.4351,-0.4348,-0.4348,-0.4349,-0.4364,-0.4365,-0.4345,-0.4345,-0.4345,-0.4345,-0.4345,-0.4345,-0.4294,-0.4292,-0.4296,-0.4296,-0.43,-0.43,-0.4302,-0.4305,-0.4309,-0.431,-0.4312,-0.4317,-0.4323,-0.4327,-0.4329,-0.4331,-0.4332,-0.4328,-0.4332,-0.4346,-0.4348,-0.435,-0.4351,-0.4328,-0.4328,-0.4316,-0.4316,-0.4316]},{"header":{"parameterUnit":"m.s-1","parameterCategory":1,"la1":30.2991,"la2":30.254,"lo1":-89.0895,"lo2":-89.0444,"dy":0.0017,"dx":0.0017,"nx":28,"ny":28,"refTime":"2025-03-17T21:00:00:Z","depth":0,"parameterNumber":3,"parameterNumberName":"V-component_of_WINDS"},"data":[0,0,0,0,0,0,0,0,0,0,0,0,0,0,0,0,0,0,0,0,0,0,0,0,0,0,0,0,0,0,0,0,0,0,0,0,0,0,0,0,0,0,0,0,0,0,0,0,0,0,0,0,0,0,0,0,0,0,6.9865,6.9866,0,6.9945,6.9946,6.9947,6.9878,6.9876,6.9873,6.987,6.9945,6.995,6.9955,0,0,0,0,0,0,0,0,0,0,0,0,0,6.9644,6.9649,6.9865,6.9866,6.9867,6.9945,6.9946,6.9947,6.9879,6.9875,6.9872,6.9869,6.9944,6.9949,6.9955,0,0,0,0,0,0,0,0,0,0,0,0,0,6.9734,6.965,6.9865,6.9843,6.9841,6.9945,6.9946,6.9948,6.988,6.9875,6.9871,6.9867,6.9942,6.9949,6.9956,7.0084,0,0,6.9977,6.998,0,0,0,0,0,0,0,0,6.9729,6.9742,6.9845,6.9844,6.9843,6.9898,6.9896,6.9993,6.9881,6.9865,6.987,6.9865,6.9933,6.994,6.9964,7.0087,7.009,6.9978,6.9982,6.9985,6.9987,0,0,0,0,0,0,0,6.9723,6.9738,6.9897,6.9846,6.9845,6.9826,6.9834,6.9914,6.9921,6.9866,6.9861,6.9872,6.9931,6.9958,6.9965,7.0092,6.9977,6.9984,6.9988,6.9991,7.032,7.0325,0,0,0,0,0,0,6.972,6.9734,6.9894,6.9899,6.9775,6.9833,6.9842,6.9884,6.992,6.9922,6.9875,6.9868,6.9948,6.9957,6.9968,7.0118,6.9985,6.9991,6.9995,7.0316,7.0321,7.0326,0,0,0,0,0,0,6.9716,6.9735,6.9891,6.9815,6.9834,6.9842,6.9889,6.9888,6.9915,6.9928,6.9928,6.9902,6.9945,6.9958,7.0055,7.0119,6.9994,7.0001,7.031,7.0317,7.0324,7.042,0,0,0,0,0,0,6.971,6.9734,6.9785,6.9817,6.9838,6.998,6.9894,6.9893,6.9928,6.9919,6.9952,6.9954,6.9943,7.0045,7.0062,7.0127,7.0006,7.0304,7.0313,7.0321,7.0411,7.0429,7.0445,0,0,0,0,0,6.9702,6.9808,6.9788,6.9807,6.9902,6.9984,6.9995,6.9982,6.9933,6.9983,6.9991,6.9953,7.011,7.0056,7.0074,7.0142,7.03,7.0311,7.0321,7.0403,7.0426,7.0445,0,0,0,0,0,0,6.9781,6.9812,6.979,6.991,6.9945,6.9972,7.0034,7.0007,7.0055,7.0045,7.0024,7.0032,7.0134,7.0148,7.0087,7.0266,7.0197,7.0211,7.0253,7.0275,7.0291,7.0285,7.0012,0,0,0,0,0,6.9813,6.9879,6.9901,7.0005,7.0024,7.0026,7.0061,7.0048,7.0083,7.0097,7.0112,7.0145,7.0201,7.0239,7.0292,7.0413,7.0418,7.0469,7.0486,7.0499,7.0511,7.0573,7.0596,7.036,7.036,7.036,0,0,6.9878,6.9903,6.9946,7.0021,7.0047,7.0113,7.0039,7.0113,7.016,7.0107,7.02,7.0212,7.0247,7.0356,7.0405,7.0371,7.0578,7.0513,7.0524,7.0528,7.0586,7.0609,7.0628,7.0367,7.0366,7.0365,0,0,7.003,7.0058,7.0146,7.0173,7.0214,7.0214,7.0235,7.0267,7.0273,7.0367,7.0327,7.0383,7.0482,7.0508,7.0534,7.0695,7.0661,7.0713,7.08,7.0861,7.088,7.0896,7.0951,7.0971,7.0725,7.0725,7.0726,0,7.0106,7.0207,7.0194,7.027,7.0303,7.026,7.0347,7.0373,7.0428,7.045,7.0412,7.0534,7.0555,7.0668,7.0707,7.0731,7.0752,7.0708,7.0879,7.0895,7.091,7.0961,7.0983,7.0731,7.0731,7.073,7.0729,0,7.0296,7.0366,7.0432,7.0488,7.0528,7.061,7.0606,7.0648,7.0631,7.0635,7.0729,7.0753,7.0808,7.0835,7.0819,7.0945,7.0922,7.0882,7.0811,7.0938,7.0986,7.1007,7.074,7.0738,7.0736,7.0734,0,0,7.05,7.0547,7.0571,7.0595,7.0636,7.0689,7.0767,7.0823,7.0858,7.0897,7.096,7.1045,7.1007,7.1036,7.1023,7.1077,7.1199,7.1029,7.1029,7.1057,7.1337,7.1365,7.1389,7.1178,7.1182,7.1185,7.1333,0,7.0652,7.0791,7.078,7.0909,7.0972,7.0931,7.0999,7.103,7.1035,7.1087,7.1092,7.1151,7.1098,7.1116,7.1167,7.1174,7.1255,7.1163,7.1233,7.1235,7.1223,7.1415,7.1446,7.1584,7.1352,7.1355,7.1357,0,7.0848,7.0896,7.1032,7.1061,7.1087,7.1149,7.1198,7.125,7.1282,7.1282,7.1316,7.1292,7.1368,7.1298,7.1399,7.1337,7.1365,7.1372,7.1377,7.1381,7.1303,7.1421,7.1629,7.1649,7.1388,7.1385,7.1383,0,7.098,7.1078,7.1171,7.1193,7.1231,7.1274,7.1291,7.1321,7.1354,7.1397,7.1418,7.1469,7.1496,7.1535,7.1524,7.1475,7.1628,7.1557,7.1627,7.1627,7.1659,7.1657,7.1872,7.1682,7.1681,7.1681,7.1681,0,7.115,7.1234,7.1231,7.1288,7.138,7.1366,7.1457,7.1468,7.1494,7.155,7.1518,7.1571,7.1556,7.1608,7.16,7.1684,7.1697,7.1697,7.1693,7.1699,7.1698,7.1715,7.1704,7.1686,7.1685,7.1684,7.1683,0,7.1313,7.1314,7.1413,7.1441,7.1449,7.1515,7.1538,7.159,7.1593,7.1664,7.168,7.1684,7.1743,7.1737,7.1803,7.1798,7.1901,7.1887,7.1891,7.1887,7.1956,7.1948,7.2187,7.2216,7.2009,7.2011,7.2013,0,7.142,7.1484,7.1519,7.1555,7.1576,7.1635,7.1669,7.1658,7.1695,7.1736,7.1783,7.1839,7.1883,7.1979,7.1986,7.2035,7.2021,7.2101,7.2028,7.203,7.2019,7.2014,7.2019,7.2114,7.2117,7.2119,7.212,0,7.1609,7.1607,7.1659,7.1712,7.1755,7.1795,7.1831,7.1862,7.1854,7.1896,7.1957,7.1992,7.2059,7.2114,7.2161,7.2175,7.2146,7.2144,7.2162,7.2167,7.2165,7.2164,7.1927,7.2138,7.2136,7.2135,7.2134,7.2133,7.1746,7.18,7.1832,7.1891,7.1918,7.1952,7.2002,7.2012,7.2063,7.2118,7.2107,7.2175,7.2203,7.2263,7.2283,7.2333,7.2304,7.2331,7.2338,7.2344,7.2351,7.2159,7.2342,7.2342,7.2341,7.2341,7.234,0,7.1931,7.195,7.2005,7.2057,7.2103,7.2073,7.2112,7.2151,7.2211,7.2242,7.2286,7.2354,7.2408,7.2419,7.2469,7.2507,7.2494,7.252,7.2516,7.2519,7.2376,7.2354,7.253,7.253,7.2529,7.2529,7.2529,7.2529,7.2033,7.2122,7.2123,7.2223,7.2241,7.2308,7.2332,7.2363,7.2387,7.2465,7.251,7.2518,7.2539,7.259,7.2637,7.2638,7.2657,7.2688,7.2684,7.2549,7.253,7.2512,7.2491,7.2693,7.2693,7.2823,7.2824,7.2825]}]]